Location: Newark
(46.7000°N, 60.6000°W)
Time: 20:36:54
(UTC+00:00)

Vanguard 2 - All Passes

Search period start: 28 October 2020 00:00
Search period end: 07 November 2020 00:00
Orbit: 554 x 2937 km, 32.9° (Epoch: 27 October)

Date Brightness Start Highest point End Pass type
(mag) Time Alt. Az. Time Alt. Az. Time Alt. Az.
28 Oct - 02:03:34 10° WSW 02:18:55 50° S 02:35:13 10° ESE visible
28 Oct - 04:14:24 10° W 04:29:57 40° SSW 04:44:01 10° SE visible
28 Oct - 06:28:40 10° W 06:39:14 20° SW 06:48:27 10° S visible
28 Oct - 22:06:24 10° SSW 22:16:03 27° SE 22:28:31 10° E visible
29 Oct - 00:12:21 10° SW 00:25:31 46° SSE 00:41:50 10° E visible
29 Oct - 02:21:18 10° WSW 02:36:36 49° S 02:52:47 10° ESE visible
29 Oct - 04:32:31 10° W 04:47:23 35° SSW 05:00:56 10° SSE visible
29 Oct - 06:48:43 10° WSW 06:56:15 14° SW 07:03:07 10° SSW visible
29 Oct - 20:24:50 10° SE 20:25:43 10° SE 20:26:36 10° ESE daylight
29 Oct - 22:23:02 10° SSW 22:33:16 32° SSE 22:46:55 10° E visible
30 Oct - 00:29:47 10° WSW 00:43:08 48° S 00:59:41 10° ESE visible
30 Oct - 02:39:06 10° WSW 02:54:17 47° SSW 03:10:13 10° SE visible
30 Oct - 04:50:50 10° W 05:04:43 30° SSW 05:17:30 10° SSE night (unlit)
30 Oct - 20:37:07 10° SSE 20:42:38 15° SE 20:49:15 10° ESE daylight
30 Oct - 22:39:58 10° SW 22:50:36 37° SSE 23:05:06 10° E visible
31 Oct - 00:47:20 10° WSW 01:00:48 49° S 01:17:27 10° ESE visible
31 Oct - 02:56:58 10° W 03:11:53 43° SSW 03:27:30 10° SE visible
31 Oct - 05:09:27 10° W 05:21:59 25° SW 05:33:39 10° S night (unlit)
31 Oct - 20:52:38 10° S 20:59:38 20° SE 21:08:41 10° E daylight
31 Oct - 22:57:08 10° SW 23:08:02 41° SSE 23:23:08 10° E visible
01 Nov - 01:04:58 10° WSW 01:18:29 49° S 01:35:06 10° ESE visible
01 Nov - 03:14:58 10° W 03:29:26 39° SSW 03:44:32 10° SE visible
01 Nov - 05:28:38 10° W 05:39:09 19° SW 05:49:08 10° S night (unlit)
01 Nov - 21:08:55 10° SSW 21:16:44 25° SE 21:27:25 10° E visible
01 Nov - 23:14:27 10° SW 23:25:33 44° SSE 23:41:04 10° ESE visible
02 Nov - 01:22:41 10° WSW 01:36:10 47° S 01:52:39 10° ESE visible
02 Nov - 03:33:06 10° W 03:46:56 34° SSW 04:01:18 10° SSE visible
02 Nov - 05:49:00 10° WSW 05:56:16 14° SW 06:03:19 10° SSW night (unlit)
02 Nov - 21:25:38 10° SSW 21:33:58 30° SSE 21:45:48 10° E visible
02 Nov - 23:31:54 10° WSW 23:43:10 46° S 23:58:54 10° ESE visible
03 Nov - 01:40:29 10° WSW 01:53:51 44° SSW 02:10:01 10° SE visible
03 Nov - 03:51:28 10° W 04:04:21 28° SSW 04:17:42 10° SSE visible
03 Nov - 19:40:27 10° SSE 19:43:54 12° SE 19:47:53 10° ESE daylight
03 Nov - 21:42:38 10° SW 21:51:18 34° SSE 22:03:58 10° E visible
03 Nov - 23:49:28 10° WSW 00:00:49 46° S 00:16:39 10° ESE visible
04 Nov - 01:58:23 10° W 02:11:29 40° SSW 02:27:13 10° SE visible
04 Nov - 04:10:12 10° W 04:21:42 23° SW 04:33:34 10° S visible
04 Nov - 19:55:45 10° S 20:00:57 17° SE 20:07:36 10° ESE daylight
04 Nov - 21:59:50 10° SW 22:08:44 38° SSE 22:21:59 10° E visible
05 Nov - 00:07:07 10° WSW 00:18:30 46° S 00:34:17 10° ESE visible
05 Nov - 02:16:23 10° W 02:29:05 36° SSW 02:44:08 10° SE visible
05 Nov - 04:29:38 10° WSW 04:39:00 17° SW 04:48:37 10° S night (unlit)
05 Nov - 20:12:02 10° S 20:18:04 22° SE 20:26:22 10° E daylight
05 Nov - 22:17:11 10° SW 22:26:15 41° SSE 22:39:54 10° ESE visible
06 Nov - 00:24:50 10° WSW 00:36:11 43° S 00:51:46 10° SE visible
06 Nov - 02:34:35 10° W 02:46:39 30° SSW 03:00:44 10° SSE visible
06 Nov - 04:50:51 10° WSW 04:56:15 12° SW 05:01:45 10° SSW night (unlit)
06 Nov - 20:28:47 10° SSW 20:35:20 26° SSE 20:44:44 10° E daylight
06 Nov - 22:34:41 10° WSW 22:43:51 42° S 22:57:44 10° ESE visible
